Regional Weather Roundup
Issued by NWS

Home | Current Version | Previous Version | Text Only | Print | Product List | Glossary On
Versions: 1 2 3 4 5 6 7 8 9 10 11 12 13 14 15 16 17 18 19 20 21 22 23 24 25 26 27 28 29 30 31 32 33 34 35 36 37 38 39 40 41 42 43 44 45 46 47 48 49 50
000
ASUS43 KIND 261709
RWRIN

WEATHER ROUNDUP FOR INDIANA
NATIONAL WEATHER SERVICE INDIANAPOLIS IN
1200 PM EST MON JAN 26 2015

NOTE: "FAIR" INDICATES FEW OR NO CLOUDS BELOW 12,000 FEET WITH NO
SIGNIFICANT WEATHER AND/OR OBSTRUCTIONS TO VISIBILITY.

* - STATION DOES NOT REPORT WEATHER SUCH AS PRECIPITATION OR FOG.

+ - STATION NOT QUALITY CONTROLLED BY THE NATIONAL WEATHER SERVICE.
    USE DATA WITH CAUTION...ESPECIALLY DEWPOINT AND RELATIVE
    HUMIDITY OBSERVATIONS.

INZ001>003-010>013-019-020-261800-
NORTHWEST INDIANA

CITY           SKY/WX    TMP DP  RH WIND       PRES   REMARKS
GARY /AIRPORT/ CLOUDY    25  12  58 S5        29.96F WCI  19
KNOX *+        SUNNY     19   2  47 SW3       29.95F
LA PORTE +     SUNNY     22  13  70 CALM      29.95F
MICHIGAN CITY+ PTSUNNY   23  10  58 CALM      29.96F
MONTICELLO +   SUNNY     20  12  72 W5        29.97F WCI  13
RENSSELAER +   CLOUDY    23  19  86 CALM      29.95F
VALPARAISO     SUNNY     19  12  74 SW7       29.95F WCI  10

$$

LMZ046-743>745-261800-
SOUTHERN LAKE MICHIGAN

STATION/POSITION TIME  TEMP WIND        PRES
                       AIR  DIR/SP/G
                 (UTC) (F)  (DEG/KT/KT) (MB)
MICHIGAN CITY    1700   20  230/  2/  3   N/A

$$

INZ004-005-014>016-021>024-261800-
NORTH CENTRAL INDIANA

CITY           SKY/WX    TMP DP  RH WIND       PRES   REMARKS
ELKHART        SUNNY     19   7  58 CALM      29.96F
GOSHEN         SUNNY     19  12  74 CALM      29.95S
LOGANSPORT +   SUNNY     18  12  79 SW5       29.98R WCI  11
PERU/GRISSOM   MOSUNNY   16  10  77 SW2       29.95F
ROCHESTER +    SUNNY     23  14  68 CALM      29.97S
SOUTH BEND     SUNNY     20  11  68 SE5       29.95F WCI  13
WARSAW +       MOSUNNY   19  10  68 CALM      29.95S

$$

INZ006>009-017-018-025>027-261800-
NORTHEAST INDIANA

CITY           SKY/WX    TMP DP  RH WIND       PRES   REMARKS
ANGOLA *+      SUNNY     19   5  53 CALM      29.92F
AUBURN +       MOSUNNY   21  10  63 CALM      29.94F
FORT WAYNE     PTSUNNY   19   9  65 CALM      29.95S
HUNTINGTON +   PTSUNNY   17   4  59 CALM      29.95S

$$

INZ028-029-035-036-043>045-051>053-261800-
WEST CENTRAL INDIANA

CITY           SKY/WX    TMP DP  RH WIND       PRES   REMARKS
GREENCASTLE +  CLOUDY    27  18  69 W8        29.98S WCI  18
LAFAYETTE      MOSUNNY   23  17  78 W6        29.96F WCI  16
TERRE HAUTE    CLOUDY    28  22  78 NW6       29.98F WCI  22

$$

INZ030>032-037>040-046>048-054>057-064-065-261800-
CENTRAL INDIANA

CITY           SKY/WX    TMP DP  RH WIND       PRES   REMARKS
ANDERSON       SUNNY     19  10  68 NW6       29.95F WCI  11
CP ATTERBURY + MOSUNNY   28  21  74 NW8       29.96F WCI  20
COLUMBUS       MOSUNNY   27  18  69 NW7       29.97S WCI  19
INDIANAPOLIS   PTSUNNY   25  20  81 W10       29.96S WCI  15
-EAGLE CREEK   MOSUNNY   25  17  72 W8        29.95S WCI  16
KOKOMO *+      SUNNY     19  12  73 W3        29.96S
MARION +       MOSUNNY   18   9  68 CALM      29.95F
MT COMFORT *+  MOSUNNY   27  10  50 NW7       29.94F WCI  19
SHELBYVILLE    MOSUNNY   26  16  65 NW6       29.94F WCI  19
ZIONSVILLE +   MOSUNNY   26  16  67 NW8       29.96R WCI  17

$$

INZ033-034-041-042-049-050-058-059-261800-
EAST CENTRAL INDIANA

CITY           SKY/WX    TMP DP  RH WIND       PRES   REMARKS
MUNCIE         MOSUNNY   20  10  65 CALM      29.94S

$$

INZ060-061-067>069-081>083-085>088-261800-
SOUTHWEST INDIANA

CITY           SKY/WX    TMP DP  RH WIND       PRES   REMARKS
EVANSVILLE     CLOUDY    32  25  75 NW6       30.04S WCI  26
HUNTINGBURG *+ CLOUDY    30  23  74 NW9       30.02S WCI  22
WASHINGTON +   CLOUDY    30  22  70 W7        30.00F WCI  23

$$

INZ062-063-066-070>080-084-089>092-261800-
SOUTH CENTRAL AND SOUTHEAST INDIANA

CITY           SKY/WX    TMP DP  RH WIND       PRES   REMARKS
BLOOMINGTON    CLOUDY    27  21  78 W12       29.96S WCI  17

$$



USA.gov is the U.S. government's official web portal to all federal, state and local government web resources and services.